Terminal Aerodrome Forecast
Issued by NWS

Home | Current Version | Previous Version | Text Only | Print | Product List | Glossary On
Versions: 1 2 3 4 5 6 7 8 9 10 11 12 13 14 15 16 17 18
000
FTUS46 KMFR 301358 AAA
TAFOTH
TAF AMD
KOTH 301358Z 3014/3112 02006KT P6SM FEW015
     FM301700 36012KT P6SM SKC
     FM301900 36023G32KT P6SM SKC
     FM310400 02010KT P6SM SKC=

USA.gov is the U.S. government's official web portal to all federal, state and local government web resources and services.